C9756 Weather Reports


Display with metric or nautical units.
time (UTC)temp
F
wind
direction
speed
MPH
gust
MPH
rain 1hr
in
rain 24hr
in
rain mn
in
humidity
%
barometer
mb
20260505060650 63 217 2.0 6.0 0.00 0.00 0.00 55 1013.8
20260505060148 64 229 2.0 5.0 0.00 0.00 0.00 54 1013.7
20260505055650 64 233 1.0 4.0 0.00 0.00 0.00 54 1013.8
20260505055146 64 260 1.0 4.0 0.00 0.00 0.00 53 1013.8
20260505054648 64 224 1.0 4.0 0.00 0.00 0.00 53 1013.8
20260505054152 64 221 2.0 4.0 0.00 0.00 0.00 53 1013.7
20260505054146 64 234 2.0 4.0 0.00 0.00 0.00 53 1013.7
20260505053805 65 256 2.0 6.0 0.00 0.00 0.00 53 1013.6
20260505053147 64 225 2.0 4.0 0.00 0.00 0.00 53 1013.7
20260505052647 64 239 2.0 6.0 0.00 0.00 0.00 53 1013.7
20260505051648 65 235 2.0 5.0 0.00 0.00 0.00 53 1013.6
20260505051147 65 245 2.0 5.0 0.00 0.00 0.00 53 1013.7
20260505050647 65 232 3.0 6.0 0.00 0.00 0.00 53 1013.7
20260505050146 64 263 2.0 8.0 0.00 0.00 0.00 53 1013.8
20260505041644 61 221 1.0 6.0 0.00 0.00 0.00 60 1013.9
20260505041143 60 235 1.0 4.0 0.00 0.00 0.00 64 1014.0
20260505040642 60 221 0.0 2.0 0.00 0.00 0.00 63 1014.0
20260505040143 60 225 0.0 0.0 0.00 0.00 0.00 64 1014.1
20260505035643 60 225 0.0 0.0 0.00 0.00 0.00 63 1014.1
20260505035144 60 226 0.0 0.0 0.00 0.00 0.00 63 1014.1
20260505034644 60 224 0.0 0.0 0.00 0.00 0.00 63 1014.0
20260505034141 60 225 0.0 0.0 0.00 0.00 0.00 63 1014.0
20260505033640 60 225 0.0 0.0 0.00 0.00 0.00 62 1014.1
20260505033141 60 225 0.0 0.0 0.00 0.00 0.00 62 1014.0
20260505032640 60 225 0.0 0.0 0.00 0.00 0.00 64 1014.1
20260505032142 60 225 0.0 0.0 0.00 0.00 0.00 64 1014.1
20260505031640 61 225 0.0 0.0 0.00 0.00 0.00 63 1014.0
20260505031143 61 225 0.0 0.0 0.00 0.00 0.00 61 1014.1
20260505031138 61 225 0.0 0.0 0.00 0.00 0.00 64 1014.0
20260505030139 62 225 0.0 0.0 0.00 0.00 0.00 60 1014.1
20260505025754 62 225 0.0 2.0 0.00 0.00 0.00 58 1014.1
20260505025641 62 225 0.0 2.0 0.00 0.00 0.00 61 1014.1
20260505025636 62 225 0.0 1.0 0.00 0.00 0.00 61 1014.1
20260505024134 61 225 0.0 2.0 0.00 0.00 0.00 57 1014.1
20260505023640 62 225 0.0 0.0 0.00 0.00 0.00 60 1014.0
20260505023635 61 225 0.0 0.0 0.00 0.00 0.00 58 1014.0
20260505022634 62 225 0.0 0.0 0.00 0.00 0.00 58 1014.0
20260505022134 62 225 0.0 0.0 0.00 0.00 0.00 58 1014.0
20260505021639 63 225 0.0 1.0 0.00 0.00 0.00 56 1013.9
20260505021635 63 225 0.0 0.0 0.00 0.00 0.00 57 1013.9
20260505021251 63 225 0.0 1.0 0.00 0.00 0.00 54 1014.0
20260505020133 63 225 0.0 1.0 0.00 0.00 0.00 53 1013.9
20260505015632 63 224 0.0 1.0 0.00 0.00 0.00 53 1013.9
20260505015131 64 224 0.0 1.0 0.00 0.00 0.00 53 1013.8
20260505014630 64 224 0.0 0.0 0.00 0.00 0.00 53 1013.8
20260505014131 64 224 0.0 0.0 0.00 0.00 0.00 51 1013.8
20260505013630 65 224 0.0 0.0 0.00 0.00 0.00 49 1013.7
20260505013130 65 224 0.0 0.0 0.00 0.00 0.00 49 1013.7
20260505012630 65 224 0.0 1.0 0.00 0.00 0.00 49 1013.7
20260505012136 66 223 0.0 1.0 0.00 0.00 0.00 47 1013.5
20260505012130 66 223 0.0 1.0 0.00 0.00 0.00 48 1013.7
20260505011746 66 224 0.0 1.0 0.00 0.00 0.00 47 1013.5
20260505010629 66 223 0.0 2.0 0.00 0.00 0.00 47 1013.4
20260505010128 66 224 0.0 2.0 0.00 0.00 0.00 47 1013.4
20260505005626 65 229 0.0 1.0 0.00 0.00 0.00 49 1013.3
20260505005126 65 229 0.0 1.0 0.00 0.00 0.00 49 1013.2
20260505004627 66 229 0.0 0.0 0.00 0.00 0.00 47 1013.2
20260505004131 67 229 0.0 0.0 0.00 0.00 0.00 46 1013.1
20260505004126 66 229 0.0 0.0 0.00 0.00 0.00 47 1013.1
20260505003133 68 229 0.0 1.0 0.00 0.00 0.00 45 1013.1
20260505003126 67 229 0.0 0.0 0.00 0.00 0.00 46 1013.1
20260505002130 69 229 0.0 0.0 0.00 0.00 0.00 42 1013.1
20260505002125 68 229 0.0 1.0 0.00 0.00 0.00 44 1013.1
20260505001124 70 229 0.0 0.0 0.00 0.00 0.00 41 1013.1
20260505000628 71 229 0.0 2.0 0.00 0.00 0.00 40 1013.0
20260505000623 70 229 0.0 0.0 0.00 0.00 0.00 40 1013.0
20260504235622 71 229 1.0 2.0 0.00 0.00 0.00 39 1012.9
20260504235121 72 235 1.0 2.0 0.00 0.00 0.00 38 1012.9
20260504234620 72 232 1.0 2.0 0.00 0.00 0.00 37 1012.9
20260504234120 73 232 1.0 3.0 0.00 0.00 0.00 37 1012.8
20260504233623 73 264 1.0 4.0 0.00 0.00 0.00 36 1012.7
20260504233121 73 221 2.0 4.0 0.00 0.00 0.00 36 1012.6
20260504232618 73 246 1.0 4.0 0.00 0.00 0.00 36 1012.6
20260504232119 73 214 1.0 4.0 0.00 0.00 0.00 37 1012.6
20260504231618 73 237 1.0 4.0 0.00 0.00 0.00 36 1012.6
20260504231119 74 254 1.0 2.0 0.00 0.00 0.00 37 1012.5
20260504230618 74 245 1.0 4.0 0.00 0.00 0.00 36 1012.5
20260504230121 74 232 1.0 4.0 0.00 0.00 0.00 36 1012.5
20260504230116 74 256 1.0 3.0 0.00 0.00 0.00 37 1012.6
20260504225720 74 247 1.0 4.0 0.00 0.00 0.00 36 1012.5
20260504224623 75 207 2.0 6.0 0.00 0.00 0.00 35 1012.6
20260504224615 75 236 1.0 3.0 0.00 0.00 0.00 35 1012.5
20260504224115 75 235 2.0 5.0 0.00 0.00 0.00 35 1012.5
20260504223614 75 256 2.0 6.0 0.00 0.00 0.00 35 1012.5
20260504222612 76 214 1.0 4.0 0.00 0.00 0.00 35 1012.6
20260504222114 76 229 2.0 6.0 0.00 0.00 0.00 35 1012.6
20260504221615 76 236 2.0 7.0 0.00 0.00 0.00 35 1012.6
20260504221610 76 240 2.0 6.0 0.00 0.00 0.00 33 1012.6
20260504221107 76 245 2.0 5.0 0.00 0.00 0.00 35 1012.6
20260504220107 76 235 2.0 7.0 0.00 0.00 0.00 35 1012.6
20260504215604 76 224 2.0 6.0 0.00 0.00 0.00 36 1012.6
20260504215104 76 255 2.0 7.0 0.00 0.00 0.00 34 1012.6
20260504214604 76 246 2.0 7.0 0.00 0.00 0.00 35 1012.6
20260504214105 76 219 2.0 7.0 0.00 0.00 0.00 35 1012.6
20260504213602 76 266 3.0 7.0 0.00 0.00 0.00 34 1012.7
20260504213102 76 253 3.0 7.0 0.00 0.00 0.00 34 1012.7
20260504212607 77 250 1.0 4.0 0.00 0.00 0.00 36 1012.7
20260504212603 77 245 2.0 7.0 0.00 0.00 0.00 34 1012.7
20260504211601 77 259 2.0 8.0 0.00 0.00 0.00 35 1012.7
20260504211101 77 243 2.0 8.0 0.00 0.00 0.00 34 1012.7
20260504210601 77 255 2.0 6.0 0.00 0.00 0.00 37 1012.7
20260504210104 77 232 2.0 9.0 0.00 0.00 0.00 34 1012.8
20260504210100 76 225 2.0 9.0 0.00 0.00 0.00 35 1012.7
20260504205717 77 269 2.0 5.0 0.00 0.00 0.00 36 1012.9
20260504205219 77 229 2.0 7.0 0.00 0.00 0.00 37 1013.0
20260504204600 76 225 2.0 5.0 0.00 0.00 0.00 38 1012.9
20260504204059 77 239 2.0 7.0 0.00 0.00 0.00 36 1013.0
20260504203717 77 243 2.0 6.0 0.00 0.00 0.00 36 1013.1
20260504203215 77 243 2.0 6.0 0.00 0.00 0.00 36 1013.4
20260504202556 77 219 2.0 5.0 0.00 0.00 0.00 36 1013.3
20260504202057 77 197 2.0 6.0 0.00 0.00 0.00 37 1013.3
20260504201054 77 228 2.0 6.0 0.00 0.00 0.00 37 1013.4
20260504200556 77 210 2.0 8.0 0.00 0.00 0.00 37 1013.5
20260504200055 77 208 2.0 8.0 0.00 0.00 0.00 36 1013.5
20260504195552 78 232 2.0 6.0 0.00 0.00 0.00 37 1013.5
20260504195051 78 219 2.0 5.0 0.00 0.00 0.00 36 1013.6
20260504194551 78 242 2.0 5.0 0.00 0.00 0.00 36 1013.7
20260504193551 78 78 1.0 6.0 0.00 0.00 0.00 36 1013.8
20260504193547 78 240 1.0 4.0 0.00 0.00 0.00 36 1013.8
20260504192545 78 224 2.0 6.0 0.00 0.00 0.00 36 1013.8
20260504192044 78 248 1.0 4.0 0.00 0.00 0.00 35 1013.9
20260504191550 78 233 1.0 5.0 0.00 0.00 0.00 37 1014.1
20260504191544 78 186 1.0 5.0 0.00 0.00 0.00 37 1014.0
20260504190545 78 263 2.0 5.0 0.00 0.00 0.00 38 1014.2
20260504190048 77 251 2.0 6.0 0.00 0.00 0.00 37 1014.2
20260504190044 78 229 1.0 6.0 0.00 0.00 0.00 36 1014.3
20260504185043 78 226 1.0 5.0 0.00 0.00 0.00 38 1014.3
20260504184545 77 256 2.0 7.0 0.00 0.00 0.00 36 1014.4
20260504184540 77 99 2.0 7.0 0.00 0.00 0.00 38 1014.3
20260504183541 77 276 2.0 6.0 0.00 0.00 0.00 37 1014.4
20260504183039 77 207 2.0 6.0 0.00 0.00 0.00 38 1014.5
20260504182539 77 228 2.0 6.0 0.00 0.00 0.00 38 1014.6
20260504182039 78 260 2.0 6.0 0.00 0.00 0.00 37 1014.7
20260504181539 77 215 1.0 5.0 0.00 0.00 0.00 39 1014.6
20260504181037 77 221 1.0 5.0 0.00 0.00 0.00 40 1014.6
20260504180536 77 294 1.0 5.0 0.00 0.00 0.00 37 1014.7
20260504180039 77 354 1.0 6.0 0.00 0.00 0.00 41 1014.7
20260504175538 77 215 1.0 6.0 0.00 0.00 0.00 38 1014.7
20260504175035 76 222 1.0 3.0 0.00 0.00 0.00 39 1014.6
20260504174534 76 81 2.0 7.0 0.00 0.00 0.00 40 1014.7
20260504174032 76 214 2.0 7.0 0.00 0.00 0.00 38 1014.9
20260504173533 76 219 1.0 5.0 0.00 0.00 0.00 38 1014.9
20260504173033 76 285 1.0 6.0 0.00 0.00 0.00 38 1014.9
20260504172534 75 231 1.0 6.0 0.00 0.00 0.00 44 1015.0
20260504172032 75 82 1.0 6.0 0.00 0.00 0.00 39 1015.1
20260504171539 75 232 1.0 6.0 0.00 0.00 0.00 39 1015.4
20260504171534 75 213 2.0 6.0 0.00 0.00 0.00 38 1015.2
20260504171152 76 215 1.0 4.0 0.00 0.00 0.00 38 1015.4
20260504151018 70 219 2.0 6.0 0.00 0.00 0.00 43 1016.8
20260504150518 70 221 1.0 4.0 0.00 0.00 0.00 45 1016.8
20260504140509 65 98 0.0 2.0 0.00 0.00 0.00 61 1016.6
20260504130508 48 225 0.0 0.0 0.00 0.00 0.00 91 1016.5
20260504110509 40 225 0.0 0.0 0.00 0.00 0.00 91 1016.3
20260504100515 41 225 0.0 1.0 0.00 0.00 0.00 91 1016.1
20260504100510 41 225 0.0 1.0 0.00 0.00 0.00 91 1016.1
20260504081508 43 228 0.0 0.0 0.00 0.00 0.00 89 1016.0
20260504081008 43 228 0.0 0.0 0.00 0.00 0.00 89 1015.9
20260504080513 44 228 0.0 0.0 0.00 0.00 0.00 89 1015.8
20260504080508 43 228 0.0 0.0 0.00 0.00 0.00 89 1015.9